Location: Newark
(43.0000°N, 1.6781°W)
Time: 08:27:53
(UTC+00:00)

Vanguard 1 Rocket - Visible Passes

Search period start: 07 October 2022 00:00
Search period end: 17 October 2022 00:00
Orbit: 650 x 4225 km, 34.3° (Epoch: 06 October)

Date Brightness Start Highest point End Pass type
(mag) Time Alt. Az. Time Alt. Az. Time Alt. Az.
07 Oct 10.0 18:38:35 10° SW 19:01:45 55° SSE 19:12:05 23° E visible
07 Oct 9.4 21:11:20 10° W 21:29:21 58° SSW 21:29:21 58° SSW visible
07 Oct 10.9 23:44:37 10° W 23:46:36 14° W 23:46:36 14° W visible
08 Oct 10.5 17:24:14 10° SW 17:47:54 49° SSE 18:03:33 10° E visible
08 Oct 9.4 19:55:30 10° WSW 20:17:25 62° S 20:21:55 47° SE visible
08 Oct 10.2 22:29:07 10° W 22:39:10 34° WSW 22:39:10 34° WSW visible
09 Oct 10.0 18:40:00 10° WSW 19:03:56 60° S 19:14:27 24° ESE visible
09 Oct 9.5 21:13:16 10° W 21:31:42 57° SSW 21:31:42 57° SSW visible
09 Oct 11.0 23:47:03 10° W 23:48:58 14° W 23:48:58 14° W visible
10 Oct 10.6 17:25:21 10° SW 17:49:55 54° SSE 18:06:17 10° E visible
10 Oct 9.5 19:57:16 10° WSW 20:19:43 63° S 20:24:15 49° SE visible
10 Oct 10.3 22:31:13 10° W 22:41:30 33° WSW 22:41:30 33° WSW visible
11 Oct 10.0 18:41:36 10° WSW 19:06:07 63° S 19:16:47 26° ESE visible
11 Oct 9.6 21:15:13 10° W 21:34:02 55° SSW 21:34:02 55° SSW visible
11 Oct 11.0 23:49:40 10° W 23:51:17 13° W 23:51:17 13° W visible
12 Oct 10.6 17:26:43 10° SW 17:51:56 59° SSE 18:08:55 10° E visible
12 Oct 9.5 19:59:08 10° W 20:21:57 63° S 20:26:33 49° SE visible
12 Oct 10.4 22:33:23 10° W 22:43:48 31° WSW 22:43:48 31° WSW visible
13 Oct 10.0 18:43:21 10° WSW 19:08:17 65° S 19:19:05 27° ESE visible
13 Oct 9.7 21:17:12 10° W 21:36:20 51° SSW 21:36:20 51° SSW visible
13 Oct 11.1 23:52:36 10° W 23:53:35 11° W 23:53:35 11° W visible
14 Oct 10.6 17:28:18 10° WSW 17:53:56 63° S 18:11:31 10° E visible
14 Oct 9.6 20:01:03 10° W 20:24:08 61° SSW 20:28:51 48° SE visible
14 Oct 10.5 22:35:39 10° W 22:46:07 28° WSW 22:46:07 28° WSW visible
15 Oct 10.1 18:45:12 10° WSW 19:10:25 66° S 19:21:24 28° ESE visible
15 Oct 9.9 21:19:13 10° W 21:38:39 47° SSW 21:38:39 47° SSW visible
16 Oct 10.7 17:30:03 10° WSW 17:55:57 66° S 18:13:57 10° E visible
16 Oct 9.8 20:02:59 10° W 20:26:12 59° SSW 20:31:12 47° SSE visible
16 Oct 10.6 22:38:04 10° W 22:48:28 26° WSW 22:48:28 26° WSW visible
